This is the latest recevied weather packets stored in our database for station/object EA7AVH-10. If no packets are shown the sender has not sent any weather packets the latest 10 day(s).
| Time | Temp. | Humidity | Pressure | Rain* | Wind** | Luminosity | Snow |
|---|---|---|---|---|---|---|---|
| 1778067145 | 24.44° C | 28% | 918.1 hPa | - | - | - | - |
| 1778066244 | 25° C | 26% | 918.2 hPa | - | - | - | - |
| 1778065363 | 26.11° C | 24% | 918.4 hPa | - | - | - | - |
| 1778064463 | 26.11° C | 24% | 918.4 hPa | - | - | - | - |
| 1778063562 | 26.67° C | 24% | 918.5 hPa | - | - | - | - |
| 1778062661 | 29.44° C | 23% | 918.5 hPa | - | - | - | - |
| 1778061760 | 31.67° C | 23% | 918.7 hPa | - | - | - | - |
| 1778060859 | 28.33° C | 25% | 918.8 hPa | - | - | - | - |
| 1778059959 | 30° C | 24% | 918.8 hPa | - | - | - | - |
| 1778059058 | 29.44° C | 26% | 918.8 hPa | - | - | - | - |
| 1778058157 | 30° C | 25% | 918.7 hPa | - | - | - | - |
| 1778057256 | 28.33° C | 29% | 918.9 hPa | - | - | - | - |
| 1778056355 | 31.11° C | 27% | 918.9 hPa | - | - | - | - |
| 1778055454 | 30° C | 28% | 918.9 hPa | - | - | - | - |
| 1778054553 | 29.44° C | 29% | 919 hPa | - | - | - | - |
| 1778053653 | 28.89° C | 31% | 919.1 hPa | - | - | - | - |
| 1778052752 | 27.22° C | 32% | 919.1 hPa | - | - | - | - |
| 1778051851 | 25° C | 33% | 919 hPa | - | - | - | - |
| 1778050950 | 23.89° C | 35% | 919.2 hPa | - | - | - | - |
| 1778050049 | 21.67° C | 37% | 919.2 hPa | - | - | - | - |
| 1778049149 | 20° C | 39% | 919.3 hPa | - | - | - | - |
| 1778048248 | 19.44° C | 42% | 919.3 hPa | - | - | - | - |
| 1778047347 | 18.89° C | 41% | 919.4 hPa | - | - | - | - |
| 1778046446 | 15.56° C | 45% | 919.2 hPa | - | - | - | - |
| 1778045545 | 10.56° C | 51% | 919.1 hPa | - | - | - | - |
* Rain since midnight (hover to see other rain measurements)
** Current wind speed in m/s (hover to see current wind gust speed)